Year,Month,Day,Hour,Minute,Value (Times are PST for temperature in C)
2015,07,03,00,00,21.30
2015,07,03,00,01,21.20
2015,07,03,00,02,21.10
2015,07,03,00,03,21.10
2015,07,03,00,04,21.00
2015,07,03,00,05,21.00
2015,07,03,00,06,21.00
2015,07,03,00,07,21.00
2015,07,03,00,08,20.90
2015,07,03,00,09,20.90
2015,07,03,00,10,20.90
2015,07,03,00,11,20.80
2015,07,03,00,12,20.80
2015,07,03,00,13,20.70
2015,07,03,00,14,20.70
2015,07,03,00,15,20.70
2015,07,03,00,16,20.70
2015,07,03,00,17,20.70
2015,07,03,00,18,20.70
2015,07,03,00,19,20.60
2015,07,03,00,20,20.60
2015,07,03,00,21,20.60
2015,07,03,00,22,20.60
2015,07,03,00,23,20.60
2015,07,03,00,24,20.60
2015,07,03,00,25,20.50
2015,07,03,00,26,20.50
2015,07,03,00,27,20.50
2015,07,03,00,28,20.50
2015,07,03,00,29,20.40
2015,07,03,00,30,20.40
2015,07,03,00,31,20.40
2015,07,03,00,32,20.40
2015,07,03,00,33,20.40
2015,07,03,00,34,20.30
2015,07,03,00,35,20.30
2015,07,03,00,36,20.30
2015,07,03,00,37,20.30
2015,07,03,00,38,20.30
2015,07,03,00,39,20.30
2015,07,03,00,40,20.30
2015,07,03,00,41,20.30
2015,07,03,00,42,20.30
2015,07,03,00,43,20.30
2015,07,03,00,44,20.30
2015,07,03,00,45,20.30
2015,07,03,00,46,20.30
2015,07,03,00,47,20.30
2015,07,03,00,48,20.20
2015,07,03,00,49,20.20
2015,07,03,00,50,20.20
2015,07,03,00,51,20.20
2015,07,03,00,52,20.20
2015,07,03,00,53,20.20
2015,07,03,00,54,20.20
2015,07,03,00,55,20.20
2015,07,03,00,56,20.20
2015,07,03,00,57,20.20
2015,07,03,00,58,20.20
2015,07,03,00,59,20.20
2015,07,03,01,00,20.20
2015,07,03,01,01,20.20
2015,07,03,01,02,20.20
2015,07,03,01,03,20.20
2015,07,03,01,04,20.20
2015,07,03,01,05,20.20
2015,07,03,01,06,20.10
2015,07,03,01,07,20.10
2015,07,03,01,08,20.10
2015,07,03,01,09,20.10
2015,07,03,01,10,20.10
2015,07,03,01,11,20.10
2015,07,03,01,12,20.00
2015,07,03,01,13,19.90
2015,07,03,01,14,19.90
2015,07,03,01,15,19.90
2015,07,03,01,16,19.90
2015,07,03,01,17,19.90
2015,07,03,01,18,19.90
2015,07,03,01,19,19.90
2015,07,03,01,20,19.90
2015,07,03,01,21,19.90
2015,07,03,01,22,19.90
2015,07,03,01,23,19.90
2015,07,03,01,24,19.90
2015,07,03,01,25,19.90
2015,07,03,01,26,19.90
2015,07,03,01,27,19.90
2015,07,03,01,28,19.90
2015,07,03,01,29,19.80
2015,07,03,01,30,19.80
2015,07,03,01,31,19.80
2015,07,03,01,32,19.70
2015,07,03,01,33,19.70
2015,07,03,01,34,19.70
2015,07,03,01,35,19.60
2015,07,03,01,36,19.60
2015,07,03,01,37,19.60
2015,07,03,01,38,19.60
2015,07,03,01,39,19.60
2015,07,03,01,40,19.60
2015,07,03,01,41,19.50
2015,07,03,01,42,19.50
2015,07,03,01,43,19.50
2015,07,03,01,44,19.40
2015,07,03,01,45,19.40
2015,07,03,01,46,19.40
2015,07,03,01,47,19.40
2015,07,03,01,48,19.30
2015,07,03,01,49,19.30
2015,07,03,01,50,19.30
2015,07,03,01,51,19.20
2015,07,03,01,52,19.20
2015,07,03,01,53,19.10
2015,07,03,01,54,19.10
2015,07,03,01,55,19.00
2015,07,03,01,56,18.90
2015,07,03,01,57,18.90
2015,07,03,01,58,18.90
2015,07,03,01,59,18.80
2015,07,03,02,00,18.80
2015,07,03,02,01,18.70
2015,07,03,02,02,18.70
2015,07,03,02,03,18.60
2015,07,03,02,04,18.60
2015,07,03,02,05,18.60
2015,07,03,02,06,18.50
2015,07,03,02,07,18.50
2015,07,03,02,08,18.50
2015,07,03,02,09,18.40
2015,07,03,02,10,18.40
2015,07,03,02,11,18.40
2015,07,03,02,12,18.40
2015,07,03,02,13,18.40
2015,07,03,02,14,18.30
2015,07,03,02,15,18.30
2015,07,03,02,16,18.30
2015,07,03,02,17,18.30
2015,07,03,02,18,18.30
2015,07,03,02,19,18.30
2015,07,03,02,20,18.20
2015,07,03,02,21,18.20
2015,07,03,02,22,18.20
2015,07,03,02,23,18.20
2015,07,03,02,24,18.20
2015,07,03,02,25,18.20
2015,07,03,02,26,18.20
2015,07,03,02,27,18.20
2015,07,03,02,28,18.20
2015,07,03,02,29,18.10
2015,07,03,02,30,18.10
2015,07,03,02,31,18.00
2015,07,03,02,32,17.90
2015,07,03,02,33,17.90
2015,07,03,02,34,17.90
2015,07,03,02,35,17.90
2015,07,03,02,36,17.90
2015,07,03,02,37,17.90
2015,07,03,02,38,17.90
2015,07,03,02,39,17.90
2015,07,03,02,40,17.90
2015,07,03,02,41,17.90
2015,07,03,02,42,17.80
2015,07,03,02,43,17.80
2015,07,03,02,44,17.80
2015,07,03,02,45,17.80
2015,07,03,02,46,17.80
2015,07,03,02,47,17.80
2015,07,03,02,48,17.80
2015,07,03,02,49,17.80
2015,07,03,02,50,17.80
2015,07,03,02,51,17.80
2015,07,03,02,52,17.80
2015,07,03,02,53,17.80
2015,07,03,02,54,17.80
2015,07,03,02,55,17.80
2015,07,03,02,56,17.70
2015,07,03,02,57,17.70
2015,07,03,02,58,17.70
2015,07,03,02,59,17.70
2015,07,03,03,00,17.70
2015,07,03,03,01,17.70
2015,07,03,03,02,17.70
2015,07,03,03,03,17.70
2015,07,03,03,04,17.70
2015,07,03,03,05,17.60
2015,07,03,03,06,17.60
2015,07,03,03,07,17.50
2015,07,03,03,08,17.50
2015,07,03,03,09,17.40
2015,07,03,03,10,17.30
2015,07,03,03,11,17.30
2015,07,03,03,12,17.30
2015,07,03,03,13,17.20
2015,07,03,03,14,17.20
2015,07,03,03,15,17.10
2015,07,03,03,16,17.10
2015,07,03,03,17,17.10
2015,07,03,03,18,17.10
2015,07,03,03,19,17.10
2015,07,03,03,20,17.10
2015,07,03,03,21,17.20
2015,07,03,03,22,17.20
2015,07,03,03,23,17.20
2015,07,03,03,24,17.20
2015,07,03,03,25,17.20
2015,07,03,03,26,17.20
2015,07,03,03,27,17.20
2015,07,03,03,28,17.30
2015,07,03,03,29,17.30
2015,07,03,03,30,17.30
2015,07,03,03,31,17.30
2015,07,03,03,32,17.30
2015,07,03,03,33,17.30
2015,07,03,03,34,17.30
2015,07,03,03,35,17.30
2015,07,03,03,36,17.30
2015,07,03,03,37,17.30
2015,07,03,03,38,17.30
2015,07,03,03,39,17.30
2015,07,03,03,40,17.30
2015,07,03,03,41,17.30
2015,07,03,03,42,17.30
2015,07,03,03,43,17.30
2015,07,03,03,44,17.30
2015,07,03,03,45,17.30
2015,07,03,03,46,17.30
2015,07,03,03,47,17.30
2015,07,03,03,48,17.30
2015,07,03,03,49,17.30
2015,07,03,03,50,17.30
2015,07,03,03,51,17.30
2015,07,03,03,52,17.30
2015,07,03,03,53,17.20
2015,07,03,03,54,17.20
2015,07,03,03,55,17.10
2015,07,03,03,56,17.10
2015,07,03,03,57,17.10
2015,07,03,03,58,17.00
2015,07,03,03,59,17.00
2015,07,03,04,00,17.00
2015,07,03,04,01,16.90
2015,07,03,04,02,16.90
2015,07,03,04,03,16.90
2015,07,03,04,04,16.90
2015,07,03,04,05,16.90
2015,07,03,04,06,16.80
2015,07,03,04,07,16.80
2015,07,03,04,08,16.80
2015,07,03,04,09,16.80
2015,07,03,04,10,16.80
2015,07,03,04,11,16.80
2015,07,03,04,12,16.80
2015,07,03,04,13,16.80
2015,07,03,04,14,16.80
2015,07,03,04,15,16.80
2015,07,03,04,16,16.80
2015,07,03,04,17,16.80
2015,07,03,04,18,16.80
2015,07,03,04,19,16.80
2015,07,03,04,20,16.80
2015,07,03,04,21,16.80
2015,07,03,04,22,16.80
2015,07,03,04,23,16.80
2015,07,03,04,24,16.80
2015,07,03,04,25,16.80
2015,07,03,04,26,16.80
2015,07,03,04,27,16.70
2015,07,03,04,28,16.70
2015,07,03,04,29,16.70
2015,07,03,04,30,16.70
2015,07,03,04,31,16.70
2015,07,03,04,32,16.70
2015,07,03,04,33,16.70
2015,07,03,04,34,16.70
2015,07,03,04,35,16.70
2015,07,03,04,36,16.80
2015,07,03,04,37,16.80
2015,07,03,04,38,16.80
2015,07,03,04,39,16.80
2015,07,03,04,40,16.70
2015,07,03,04,41,16.70
2015,07,03,04,42,16.70
2015,07,03,04,43,16.70
2015,07,03,04,44,16.70
2015,07,03,04,45,16.60
2015,07,03,04,46,16.60
2015,07,03,04,47,16.50
2015,07,03,04,48,16.40
2015,07,03,04,49,16.40
2015,07,03,04,50,16.40
2015,07,03,04,51,16.40
2015,07,03,04,52,16.40
2015,07,03,04,53,16.40
2015,07,03,04,54,16.40
2015,07,03,04,55,16.40
2015,07,03,04,56,16.40
2015,07,03,04,57,16.40
2015,07,03,04,58,16.40
2015,07,03,04,59,16.40
2015,07,03,05,00,16.40
2015,07,03,05,01,16.40
2015,07,03,05,02,16.40
2015,07,03,05,03,16.40
2015,07,03,05,04,16.40
2015,07,03,05,05,16.40
2015,07,03,05,06,16.40
2015,07,03,05,07,16.40
2015,07,03,05,08,16.40
2015,07,03,05,09,16.40
2015,07,03,05,10,16.40
2015,07,03,05,11,16.40
2015,07,03,05,12,16.40
2015,07,03,05,13,16.30
2015,07,03,05,14,16.30
2015,07,03,05,15,16.30
2015,07,03,05,16,16.30
2015,07,03,05,17,16.30
2015,07,03,05,18,16.30
2015,07,03,05,19,16.30
2015,07,03,05,20,16.30
2015,07,03,05,21,16.30
2015,07,03,05,22,16.30
2015,07,03,05,23,16.20
2015,07,03,05,24,16.20
2015,07,03,05,25,16.20
2015,07,03,05,26,16.20
2015,07,03,05,27,16.20
2015,07,03,05,28,16.20
2015,07,03,05,29,16.20
2015,07,03,05,30,16.20
2015,07,03,05,31,16.20
2015,07,03,05,32,16.20
2015,07,03,05,33,16.20
2015,07,03,05,34,16.20
2015,07,03,05,35,16.20
2015,07,03,05,36,16.10
2015,07,03,05,37,16.10
2015,07,03,05,38,16.10
2015,07,03,05,39,16.10
2015,07,03,05,40,16.10
2015,07,03,05,41,16.10
2015,07,03,05,42,16.10
2015,07,03,05,43,16.10
2015,07,03,05,44,16.10
2015,07,03,05,45,16.10
2015,07,03,05,46,16.10
2015,07,03,05,47,16.10
2015,07,03,05,48,16.10
2015,07,03,05,49,16.10
2015,07,03,05,50,16.10
2015,07,03,05,51,16.10
2015,07,03,05,52,16.10
2015,07,03,05,53,16.10
2015,07,03,05,54,16.10
2015,07,03,05,55,16.20
2015,07,03,05,56,16.20
2015,07,03,05,57,16.20
2015,07,03,05,58,16.20
2015,07,03,05,59,16.20
2015,07,03,06,00,16.30
2015,07,03,06,01,16.30
2015,07,03,06,02,16.30
2015,07,03,06,03,16.40
2015,07,03,06,04,16.40
2015,07,03,06,05,16.40
2015,07,03,06,06,16.60
2015,07,03,06,07,16.60
2015,07,03,06,08,16.60
2015,07,03,06,09,16.70
2015,07,03,06,10,16.70
2015,07,03,06,11,16.80
2015,07,03,06,12,16.90
2015,07,03,06,13,17.00
2015,07,03,06,14,17.00
2015,07,03,06,15,17.10
2015,07,03,06,16,17.10
2015,07,03,06,17,17.20
2015,07,03,06,18,17.20
2015,07,03,06,19,17.30
2015,07,03,06,20,17.30
2015,07,03,06,21,17.30
2015,07,03,06,22,17.40
2015,07,03,06,23,17.50
2015,07,03,06,24,17.50
2015,07,03,06,25,17.60
2015,07,03,06,26,17.60
2015,07,03,06,27,17.60
2015,07,03,06,28,17.60
2015,07,03,06,29,17.60
2015,07,03,06,30,17.70
2015,07,03,06,31,17.70
2015,07,03,06,32,17.70
2015,07,03,06,33,17.70
2015,07,03,06,34,17.70
2015,07,03,06,35,17.80
2015,07,03,06,36,17.80
2015,07,03,06,37,17.90
2015,07,03,06,38,17.90
2015,07,03,06,39,17.90
2015,07,03,06,40,17.90
2015,07,03,06,41,18.00
2015,07,03,06,42,18.10
2015,07,03,06,43,18.10
2015,07,03,06,44,18.20
2015,07,03,06,45,18.20
2015,07,03,06,46,18.20
2015,07,03,06,47,18.20
2015,07,03,06,48,18.30
2015,07,03,06,49,18.40
2015,07,03,06,50,18.50
2015,07,03,06,51,18.50
2015,07,03,06,52,18.60
2015,07,03,06,53,18.60
2015,07,03,06,54,18.70
2015,07,03,06,55,18.80
2015,07,03,06,56,18.90
2015,07,03,06,57,19.00
2015,07,03,06,58,19.10
2015,07,03,06,59,19.20
2015,07,03,07,00,19.30
2015,07,03,07,01,19.40
2015,07,03,07,02,19.50
2015,07,03,07,03,19.50
2015,07,03,07,04,19.60
2015,07,03,07,05,19.60
2015,07,03,07,06,19.70
2015,07,03,07,07,19.80
2015,07,03,07,08,19.80
2015,07,03,07,09,19.80
2015,07,03,07,10,19.80
2015,07,03,07,11,19.80
2015,07,03,07,12,19.80
2015,07,03,07,13,19.90
2015,07,03,07,14,19.90
2015,07,03,07,15,19.90
2015,07,03,07,16,19.80
2015,07,03,07,17,19.70
2015,07,03,07,18,19.60
2015,07,03,07,19,19.60
2015,07,03,07,20,19.50
2015,07,03,07,21,19.50
2015,07,03,07,22,19.40
2015,07,03,07,23,19.40
2015,07,03,07,24,19.40
2015,07,03,07,25,19.40
2015,07,03,07,26,19.40
2015,07,03,07,27,19.50
2015,07,03,07,28,19.60
2015,07,03,07,29,19.60
2015,07,03,07,30,19.70
2015,07,03,07,31,19.70
2015,07,03,07,32,19.90
2015,07,03,07,33,19.90
2015,07,03,07,34,20.00
2015,07,03,07,35,20.10
2015,07,03,07,36,20.20
2015,07,03,07,37,20.30
2015,07,03,07,38,20.50
2015,07,03,07,39,20.60
2015,07,03,07,40,20.70
2015,07,03,07,41,20.80
2015,07,03,07,42,21.00
2015,07,03,07,43,21.00
2015,07,03,07,44,21.10
2015,07,03,07,45,21.20
2015,07,03,07,46,21.20
2015,07,03,07,47,21.20
2015,07,03,07,48,21.20
2015,07,03,07,49,21.20
2015,07,03,07,50,21.20
2015,07,03,07,51,21.20
2015,07,03,07,52,21.30
2015,07,03,07,53,21.30
2015,07,03,07,54,21.30
2015,07,03,07,55,21.30
2015,07,03,07,56,21.30
2015,07,03,07,57,21.30
2015,07,03,07,58,21.30
2015,07,03,07,59,21.30
2015,07,03,08,00,21.30
2015,07,03,08,01,21.30
2015,07,03,08,02,21.30
2015,07,03,08,03,21.30
2015,07,03,08,04,21.20
2015,07,03,08,05,21.20
2015,07,03,08,06,21.20
2015,07,03,08,07,21.10
2015,07,03,08,08,21.10
2015,07,03,08,09,21.20
2015,07,03,08,10,21.10
2015,07,03,08,11,21.10
2015,07,03,08,12,21.10
2015,07,03,08,13,21.10
2015,07,03,08,14,21.20
2015,07,03,08,15,21.20
2015,07,03,08,16,21.20
2015,07,03,08,17,21.30
2015,07,03,08,18,21.20
2015,07,03,08,19,21.20
2015,07,03,08,20,21.20
2015,07,03,08,21,21.30
2015,07,03,08,22,21.30
2015,07,03,08,23,21.30
2015,07,03,08,24,21.30
2015,07,03,08,25,21.20
2015,07,03,08,26,21.20
2015,07,03,08,27,21.10
2015,07,03,08,28,21.10
2015,07,03,08,29,21.10
2015,07,03,08,30,21.10
2015,07,03,08,31,21.10
2015,07,03,08,32,21.10
2015,07,03,08,33,21.00
2015,07,03,08,34,21.10
2015,07,03,08,35,21.20
2015,07,03,08,36,21.20
2015,07,03,08,37,21.20
2015,07,03,08,38,21.30
2015,07,03,08,39,21.20
2015,07,03,08,40,21.20
2015,07,03,08,41,21.20
2015,07,03,08,42,21.20
2015,07,03,08,43,21.20
2015,07,03,08,44,21.20
2015,07,03,08,45,21.20
2015,07,03,08,46,21.20
2015,07,03,08,47,21.20
2015,07,03,08,48,21.20
2015,07,03,08,49,21.30
2015,07,03,08,50,21.30
2015,07,03,08,51,21.30
2015,07,03,08,52,21.30
2015,07,03,08,53,21.30
2015,07,03,08,54,21.40
2015,07,03,08,55,21.40
2015,07,03,08,56,21.40
2015,07,03,08,57,21.50
2015,07,03,08,58,21.60
2015,07,03,08,59,21.60
2015,07,03,09,00,21.60
2015,07,03,09,01,21.60
2015,07,03,09,02,21.60
2015,07,03,09,03,21.60
2015,07,03,09,04,21.60
2015,07,03,09,05,21.60
2015,07,03,09,06,21.70
2015,07,03,09,07,21.70
2015,07,03,09,08,21.70
2015,07,03,09,09,21.70
2015,07,03,09,10,21.70
2015,07,03,09,11,21.70
2015,07,03,09,12,21.80
2015,07,03,09,13,21.80
2015,07,03,09,14,21.80
2015,07,03,09,15,21.90
2015,07,03,09,16,22.00
2015,07,03,09,17,22.00
2015,07,03,09,18,22.00
2015,07,03,09,19,22.10
2015,07,03,09,20,22.20
2015,07,03,09,21,22.30
2015,07,03,09,22,22.30
2015,07,03,09,23,22.30
2015,07,03,09,24,22.20
2015,07,03,09,25,22.20
2015,07,03,09,26,22.20
2015,07,03,09,27,22.20
2015,07,03,09,28,22.20
2015,07,03,09,29,22.10
2015,07,03,09,30,22.10
2015,07,03,09,31,22.10
2015,07,03,09,32,22.10
2015,07,03,09,33,22.10
2015,07,03,09,34,22.10
2015,07,03,09,35,22.20
2015,07,03,09,36,22.00
2015,07,03,09,37,22.00
2015,07,03,09,38,22.00
2015,07,03,09,39,22.10
2015,07,03,09,40,22.10
2015,07,03,09,41,22.10
2015,07,03,09,42,22.00
2015,07,03,09,43,22.00
2015,07,03,09,44,21.90
2015,07,03,09,45,21.90
2015,07,03,09,46,22.00
2015,07,03,09,47,22.10
2015,07,03,09,48,22.10
2015,07,03,09,49,22.00
2015,07,03,09,50,22.00
2015,07,03,09,51,22.00
2015,07,03,09,52,22.00
2015,07,03,09,53,22.10
2015,07,03,09,54,22.20
2015,07,03,09,55,22.30
2015,07,03,09,56,22.30
2015,07,03,09,57,22.30
2015,07,03,09,58,22.20
2015,07,03,09,59,22.20
2015,07,03,10,00,22.10
2015,07,03,10,01,22.10
2015,07,03,10,02,22.20
2015,07,03,10,03,22.30
2015,07,03,10,04,22.40
2015,07,03,10,05,22.40
2015,07,03,10,06,22.40
2015,07,03,10,07,22.30
2015,07,03,10,08,22.30
2015,07,03,10,09,22.30
2015,07,03,10,10,22.30
2015,07,03,10,11,22.20
2015,07,03,10,12,22.10
2015,07,03,10,13,22.00
2015,07,03,10,14,21.90
2015,07,03,10,15,21.90
2015,07,03,10,16,21.90
2015,07,03,10,17,21.90
2015,07,03,10,18,21.90
2015,07,03,10,19,22.00
2015,07,03,10,20,22.10
2015,07,03,10,21,22.20
2015,07,03,10,22,22.20
2015,07,03,10,23,22.20
2015,07,03,10,24,22.30
2015,07,03,10,25,22.40
2015,07,03,10,26,22.40
2015,07,03,10,27,22.50
2015,07,03,10,28,22.50
2015,07,03,10,29,22.50
2015,07,03,10,30,22.60
2015,07,03,10,31,22.80
2015,07,03,10,32,22.90
2015,07,03,10,33,23.00
2015,07,03,10,34,23.10
2015,07,03,10,35,23.00
2015,07,03,10,36,22.90
2015,07,03,10,37,22.80
2015,07,03,10,38,22.80
2015,07,03,10,39,22.80
2015,07,03,10,40,22.70
2015,07,03,10,41,22.70
2015,07,03,10,42,22.70
2015,07,03,10,43,22.70
2015,07,03,10,44,22.70
2015,07,03,10,45,22.80
2015,07,03,10,46,22.80
2015,07,03,10,47,22.90
2015,07,03,10,48,22.90
2015,07,03,10,49,22.90
2015,07,03,10,50,22.90
2015,07,03,10,51,22.90
2015,07,03,10,52,22.90
2015,07,03,10,53,22.90
2015,07,03,10,54,22.90
2015,07,03,10,55,22.90
2015,07,03,10,56,22.90
2015,07,03,10,57,22.90
2015,07,03,10,58,22.90
2015,07,03,10,59,22.90
2015,07,03,11,00,23.00
2015,07,03,11,01,23.10
2015,07,03,11,02,23.20
2015,07,03,11,03,23.30
2015,07,03,11,04,23.30
2015,07,03,11,05,23.20
2015,07,03,11,06,23.10
2015,07,03,11,07,23.20
2015,07,03,11,08,23.20
2015,07,03,11,09,23.10
2015,07,03,11,10,23.10
2015,07,03,11,11,23.10
2015,07,03,11,12,23.20
2015,07,03,11,13,23.20
2015,07,03,11,14,23.30
2015,07,03,11,15,23.50
2015,07,03,11,16,23.70
2015,07,03,11,17,23.70
2015,07,03,11,18,23.70
2015,07,03,11,19,23.70
2015,07,03,11,20,23.70
2015,07,03,11,21,23.70
2015,07,03,11,22,23.70
2015,07,03,11,23,23.70
2015,07,03,11,24,23.60
2015,07,03,11,25,23.40
2015,07,03,11,26,23.40
2015,07,03,11,27,23.40
2015,07,03,11,28,23.60
2015,07,03,11,29,23.70
2015,07,03,11,30,23.70
2015,07,03,11,31,23.70
2015,07,03,11,32,23.70
2015,07,03,11,33,23.70
2015,07,03,11,34,23.70
2015,07,03,11,35,23.70
2015,07,03,11,36,23.70
2015,07,03,11,37,23.70
2015,07,03,11,38,23.70
2015,07,03,11,39,23.70
2015,07,03,11,40,23.70
2015,07,03,11,41,23.70
2015,07,03,11,42,23.70
2015,07,03,11,43,23.80
2015,07,03,11,44,24.00
2015,07,03,11,45,24.10
2015,07,03,11,46,24.10
2015,07,03,11,47,24.10
2015,07,03,11,48,24.00
2015,07,03,11,49,23.80
2015,07,03,11,50,23.60
2015,07,03,11,51,23.50
2015,07,03,11,52,23.30
2015,07,03,11,53,23.30
2015,07,03,11,54,23.20
2015,07,03,11,55,23.30
2015,07,03,11,56,23.30
2015,07,03,11,57,23.30
2015,07,03,11,58,23.20
2015,07,03,11,59,23.20
2015,07,03,12,00,23.20
2015,07,03,12,01,23.20
2015,07,03,12,02,23.30
2015,07,03,12,03,23.40
2015,07,03,12,04,23.60
2015,07,03,12,05,23.50
2015,07,03,12,06,23.40
2015,07,03,12,07,23.40
2015,07,03,12,08,23.30
2015,07,03,12,09,23.30
2015,07,03,12,10,23.40
2015,07,03,12,11,23.40
2015,07,03,12,12,23.50
2015,07,03,12,13,23.60
2015,07,03,12,14,23.60
2015,07,03,12,15,23.60
2015,07,03,12,16,23.60
2015,07,03,12,17,23.60
2015,07,03,12,18,23.70
2015,07,03,12,19,23.60
2015,07,03,12,20,23.60
2015,07,03,12,21,23.60
2015,07,03,12,22,23.50
2015,07,03,12,23,23.40
2015,07,03,12,24,23.50
2015,07,03,12,25,23.60
2015,07,03,12,26,23.70
2015,07,03,12,27,23.70
2015,07,03,12,28,23.80
2015,07,03,12,29,23.90
2015,07,03,12,30,23.90
2015,07,03,12,31,23.90
2015,07,03,12,32,23.90
2015,07,03,12,33,24.00
2015,07,03,12,34,24.10
2015,07,03,12,35,24.10
2015,07,03,12,36,24.10
2015,07,03,12,37,24.10
2015,07,03,12,38,24.10
2015,07,03,12,39,24.10
2015,07,03,12,40,24.20
2015,07,03,12,41,24.40
2015,07,03,12,42,24.60
2015,07,03,12,43,24.60
2015,07,03,12,44,24.70
2015,07,03,12,45,24.80
2015,07,03,12,46,24.70
2015,07,03,12,47,24.80
2015,07,03,12,48,24.80
2015,07,03,12,49,24.70
2015,07,03,12,50,24.80
2015,07,03,12,51,24.80
2015,07,03,12,52,24.90
2015,07,03,12,53,24.90
2015,07,03,12,54,24.90
2015,07,03,12,55,24.90
2015,07,03,12,56,24.90
2015,07,03,12,57,24.90
2015,07,03,12,58,24.90
2015,07,03,12,59,25.00
2015,07,03,13,00,25.10
2015,07,03,13,01,25.20
2015,07,03,13,02,25.10
2015,07,03,13,03,25.00
2015,07,03,13,04,24.90
2015,07,03,13,05,24.80
2015,07,03,13,06,24.80
2015,07,03,13,07,24.90
2015,07,03,13,08,25.10
2015,07,03,13,09,25.40
2015,07,03,13,10,25.50
2015,07,03,13,11,25.60
2015,07,03,13,12,25.70
2015,07,03,13,13,25.70
2015,07,03,13,14,25.70
2015,07,03,13,15,25.70
2015,07,03,13,16,25.70
2015,07,03,13,17,25.70
2015,07,03,13,18,25.70
2015,07,03,13,19,25.60
2015,07,03,13,20,25.40
2015,07,03,13,21,25.40
2015,07,03,13,22,25.30
2015,07,03,13,23,25.40
2015,07,03,13,24,25.50
2015,07,03,13,25,25.50
2015,07,03,13,26,25.70
2015,07,03,13,27,25.90
2015,07,03,13,28,25.90
2015,07,03,13,29,26.00
2015,07,03,13,30,26.10
2015,07,03,13,31,26.00
2015,07,03,13,32,26.00
2015,07,03,13,33,25.80
2015,07,03,13,34,25.80
2015,07,03,13,35,25.60
2015,07,03,13,36,25.50
2015,07,03,13,37,25.60
2015,07,03,13,38,25.70
2015,07,03,13,39,25.80
2015,07,03,13,40,25.90
2015,07,03,13,41,25.90
2015,07,03,13,42,25.90
2015,07,03,13,43,25.90
2015,07,03,13,44,25.90
2015,07,03,13,45,25.80
2015,07,03,13,46,25.80
2015,07,03,13,47,25.80
2015,07,03,13,48,25.90
2015,07,03,13,49,25.90
2015,07,03,13,50,26.00
2015,07,03,13,51,26.00
2015,07,03,13,52,26.00
2015,07,03,13,53,26.10
2015,07,03,13,54,26.10
2015,07,03,13,55,26.30
2015,07,03,13,56,26.40
2015,07,03,13,57,26.50
2015,07,03,13,58,26.60
2015,07,03,13,59,26.60
2015,07,03,14,00,26.60
2015,07,03,14,01,26.60
2015,07,03,14,02,26.60
2015,07,03,14,03,26.60
2015,07,03,14,04,26.70
2015,07,03,14,05,26.80
2015,07,03,14,06,26.90
2015,07,03,14,07,27.10
2015,07,03,14,08,27.10
2015,07,03,14,09,27.10
2015,07,03,14,10,27.20
2015,07,03,14,11,27.30
2015,07,03,14,12,27.30
2015,07,03,14,13,27.40
2015,07,03,14,14,27.30
2015,07,03,14,15,27.30
2015,07,03,14,16,27.30
2015,07,03,14,17,27.50
2015,07,03,14,18,27.60
2015,07,03,14,19,27.70
2015,07,03,14,20,27.90
2015,07,03,14,21,28.10
2015,07,03,14,22,28.30
2015,07,03,14,23,28.50
2015,07,03,14,24,28.60
2015,07,03,14,25,28.80
2015,07,03,14,26,28.90
2015,07,03,14,27,28.90
2015,07,03,14,28,28.90
2015,07,03,14,29,28.90
2015,07,03,14,30,29.00
2015,07,03,14,31,29.10
2015,07,03,14,32,29.10
2015,07,03,14,33,29.20
2015,07,03,14,34,29.30
2015,07,03,14,35,29.40
2015,07,03,14,36,29.50
2015,07,03,14,37,29.50
2015,07,03,14,38,29.50
2015,07,03,14,39,29.30
2015,07,03,14,40,29.00
2015,07,03,14,41,28.80
2015,07,03,14,42,28.60
2015,07,03,14,43,28.40
2015,07,03,14,44,28.20
2015,07,03,14,45,27.90
2015,07,03,14,46,27.80
2015,07,03,14,47,27.80
2015,07,03,14,48,27.80
2015,07,03,14,49,27.90
2015,07,03,14,50,27.90
2015,07,03,14,51,27.90
2015,07,03,14,52,27.80
2015,07,03,14,53,27.60
2015,07,03,14,54,27.40
2015,07,03,14,55,27.30
2015,07,03,14,56,27.30
2015,07,03,14,57,27.20
2015,07,03,14,58,27.30
2015,07,03,14,59,27.30
2015,07,03,15,00,27.30
2015,07,03,15,01,27.30
2015,07,03,15,02,27.30
2015,07,03,15,03,27.30
2015,07,03,15,04,27.40
2015,07,03,15,05,27.40
2015,07,03,15,06,27.40
2015,07,03,15,07,27.30
2015,07,03,15,08,27.30
2015,07,03,15,09,27.30
2015,07,03,15,10,27.30
2015,07,03,15,11,27.30
2015,07,03,15,12,27.30
2015,07,03,15,13,27.30
2015,07,03,15,14,27.30
2015,07,03,15,15,27.30
2015,07,03,15,16,27.30
2015,07,03,15,17,27.30
2015,07,03,15,18,27.40
2015,07,03,15,19,27.40
2015,07,03,15,20,27.40
2015,07,03,15,21,27.50
2015,07,03,15,22,27.60
2015,07,03,15,23,27.70
2015,07,03,15,24,27.90
2015,07,03,15,25,28.10
2015,07,03,15,26,28.20
2015,07,03,15,27,28.20
2015,07,03,15,28,28.10
2015,07,03,15,29,28.00
2015,07,03,15,30,28.00
2015,07,03,15,31,28.00
2015,07,03,15,32,28.00
2015,07,03,15,33,27.80
2015,07,03,15,34,27.80
2015,07,03,15,35,27.70
2015,07,03,15,36,27.70
2015,07,03,15,37,27.70
2015,07,03,15,38,27.60
2015,07,03,15,39,27.60
2015,07,03,15,40,27.60
2015,07,03,15,41,27.60
2015,07,03,15,42,27.60
2015,07,03,15,43,27.70
2015,07,03,15,44,27.80
2015,07,03,15,45,27.70
2015,07,03,15,46,27.60
2015,07,03,15,47,27.50
2015,07,03,15,48,27.30
2015,07,03,15,49,27.30
2015,07,03,15,50,27.30
2015,07,03,15,51,27.40
2015,07,03,15,52,27.50
2015,07,03,15,53,27.60
2015,07,03,15,54,27.70
2015,07,03,15,55,27.80
2015,07,03,15,56,27.80
2015,07,03,15,57,27.70
2015,07,03,15,58,27.60
2015,07,03,15,59,27.50
2015,07,03,16,00,27.40
2015,07,03,16,01,27.40
2015,07,03,16,02,27.40
2015,07,03,16,03,27.30
2015,07,03,16,04,27.30
2015,07,03,16,05,27.30
2015,07,03,16,06,27.20
2015,07,03,16,07,27.20
2015,07,03,16,08,27.20
2015,07,03,16,09,27.20
2015,07,03,16,10,27.20
2015,07,03,16,11,27.20
2015,07,03,16,12,27.40
2015,07,03,16,13,27.60
2015,07,03,16,14,27.80
2015,07,03,16,15,27.90
2015,07,03,16,16,27.80
2015,07,03,16,17,27.70
2015,07,03,16,18,27.70
2015,07,03,16,19,27.70
2015,07,03,16,20,27.90
2015,07,03,16,21,28.00
2015,07,03,16,22,28.00
2015,07,03,16,23,28.00
2015,07,03,16,24,28.00
2015,07,03,16,25,28.00
2015,07,03,16,26,27.90
2015,07,03,16,27,27.80
2015,07,03,16,28,27.80
2015,07,03,16,29,27.90
2015,07,03,16,30,27.90
2015,07,03,16,31,27.80
2015,07,03,16,32,27.80
2015,07,03,16,33,27.80
2015,07,03,16,34,27.70
2015,07,03,16,35,27.60
2015,07,03,16,36,27.60
2015,07,03,16,37,27.70
2015,07,03,16,38,27.80
2015,07,03,16,39,27.80
2015,07,03,16,40,27.80
2015,07,03,16,41,27.70
2015,07,03,16,42,27.60
2015,07,03,16,43,27.60
2015,07,03,16,44,27.50
2015,07,03,16,45,27.40
2015,07,03,16,46,27.40
2015,07,03,16,47,27.40
2015,07,03,16,48,27.40
2015,07,03,16,49,27.50
2015,07,03,16,50,27.60
2015,07,03,16,51,27.60
2015,07,03,16,52,27.70
2015,07,03,16,53,27.70
2015,07,03,16,54,27.70
2015,07,03,16,55,27.70
2015,07,03,16,56,27.60
2015,07,03,16,57,27.50
2015,07,03,16,58,27.40
2015,07,03,16,59,27.50
2015,07,03,17,00,27.50
2015,07,03,17,01,27.40
2015,07,03,17,02,27.40
2015,07,03,17,03,27.40
2015,07,03,17,04,27.30
2015,07,03,17,05,27.30
2015,07,03,17,06,27.30
2015,07,03,17,07,27.30
2015,07,03,17,08,27.30
2015,07,03,17,09,27.50
2015,07,03,17,10,27.60
2015,07,03,17,11,27.70
2015,07,03,17,12,27.80
2015,07,03,17,13,27.80
2015,07,03,17,14,27.70
2015,07,03,17,15,27.70
2015,07,03,17,16,27.70
2015,07,03,17,17,27.70
2015,07,03,17,18,27.80
2015,07,03,17,19,27.70